Time,TemperatureF,DewpointF,PressureIn,WindDirection,WindDirectionDegrees,WindSpeedMPH,WindSpeedGustMPH,Humidity,HourlyPrecipIn,Conditions,Clouds,dailyrainin,SoftwareType,DateUTC
2013-02-03 00:02:00,41.0,29.0,30.08,WSW,245,8.0,16.0,61,-99.99,,,-99.99,,2013-02-03 06:02:00,
2013-02-03 00:11:00,41.0,29.0,30.08,SW,230,8.0,15.0,61,-99.99,,,-99.99,,2013-02-03 06:11:00,
2013-02-03 00:21:00,41.0,29.0,30.08,SW,230,8.0,15.0,61,-99.99,,,-99.99,,2013-02-03 06:21:00,
2013-02-03 00:32:00,42.0,29.0,30.07,WSW,255,9.0,15.0,60,-99.99,,,-99.99,,2013-02-03 06:32:00,
2013-02-03 00:42:00,42.0,28.0,30.07,SW,220,8.0,17.0,59,-99.99,,,-99.99,,2013-02-03 06:42:00,
2013-02-03 00:52:00,42.0,28.0,30.07,SW,220,8.0,17.0,59,-99.99,,,-99.99,,2013-02-03 06:52:00,
2013-02-03 01:01:00,43.0,28.0,30.06,West,260,11.0,19.0,56,-99.99,,,-99.99,,2013-02-03 07:01:00,
2013-02-03 01:11:00,43.0,28.0,30.07,West,265,13.0,21.0,55,-99.99,,,-99.99,,2013-02-03 07:11:00,
2013-02-03 01:21:00,43.0,28.0,30.07,West,265,13.0,21.0,55,-99.99,,,-99.99,,2013-02-03 07:21:00,
2013-02-03 01:31:00,43.0,28.0,30.10,WNW,285,11.0,18.0,55,-99.99,,,-99.99,,2013-02-03 07:31:00,
2013-02-03 01:42:00,44.0,28.0,30.10,WNW,290,11.0,21.0,53,-99.99,,,-99.99,,2013-02-03 07:42:00,
2013-02-03 01:52:00,44.0,28.0,30.10,WNW,290,11.0,21.0,53,-99.99,,,-99.99,,2013-02-03 07:52:00,
2013-02-03 02:01:00,44.0,28.0,30.09,WNW,300,12.0,24.0,53,-99.99,,,-99.99,,2013-02-03 08:01:00,
2013-02-03 02:11:00,43.0,27.0,30.10,West,280,9.0,17.0,54,-99.99,,,-99.99,,2013-02-03 08:11:00,
2013-02-03 02:22:00,43.0,27.0,30.10,West,280,9.0,17.0,54,-99.99,,,-99.99,,2013-02-03 08:22:00,
2013-02-03 02:32:00,43.0,28.0,30.10,WNW,300,11.0,20.0,55,-99.99,,,-99.99,,2013-02-03 08:32:00,
2013-02-03 02:41:00,42.0,28.0,30.10,NW,310,11.0,17.0,56,-99.99,,,-99.99,,2013-02-03 08:41:00,
2013-02-03 02:52:00,42.0,28.0,30.10,NW,310,11.0,17.0,56,-99.99,,,-99.99,,2013-02-03 08:52:00,
2013-02-03 03:02:00,41.0,28.0,30.10,WNW,285,11.0,15.0,58,-99.99,,,-99.99,,2013-02-03 09:02:00,
2013-02-03 03:11:00,41.0,28.0,30.10,WNW,290,7.0,14.0,60,-99.99,,,-99.99,,2013-02-03 09:11:00,
2013-02-03 03:21:00,41.0,28.0,30.10,WNW,290,7.0,14.0,60,-99.99,,,-99.99,,2013-02-03 09:21:00,
2013-02-03 03:31:00,40.0,27.0,30.10,WNW,295,6.0,11.0,61,-99.99,,,-99.99,,2013-02-03 09:31:00,
2013-02-03 03:42:00,39.0,28.0,30.10,WNW,295,7.0,10.0,63,-99.99,,,-99.99,,2013-02-03 09:42:00,
2013-02-03 03:51:00,39.0,28.0,30.10,WNW,295,7.0,10.0,63,-99.99,,,-99.99,,2013-02-03 09:51:00,
2013-02-03 04:01:00,39.0,28.0,30.10,WNW,300,7.0,10.0,64,-99.99,,,-99.99,,2013-02-03 10:01:00,
2013-02-03 04:11:00,38.0,27.0,30.10,WNW,295,7.0,11.0,64,-99.99,,,-99.99,,2013-02-03 10:11:00,
2013-02-03 04:21:00,38.0,27.0,30.10,WNW,295,7.0,11.0,64,-99.99,,,-99.99,,2013-02-03 10:21:00,
2013-02-03 04:31:00,38.0,27.0,30.10,WNW,300,8.0,14.0,65,-99.99,,,-99.99,,2013-02-03 10:31:00,
2013-02-03 04:42:00,38.0,27.0,30.10,WNW,295,9.0,12.0,66,-99.99,,,-99.99,,2013-02-03 10:42:00,
2013-02-03 04:52:00,38.0,27.0,30.10,WNW,295,9.0,12.0,66,-99.99,,,-99.99,,2013-02-03 10:52:00,
2013-02-03 05:02:00,37.0,27.0,30.11,WNW,285,8.0,12.0,66,-99.99,,,-99.99,,2013-02-03 11:02:00,
2013-02-03 05:11:00,37.0,27.0,30.11,WNW,290,10.0,13.0,67,-99.99,,,-99.99,,2013-02-03 11:11:00,
2013-02-03 05:22:00,37.0,27.0,30.11,WNW,290,10.0,13.0,67,-99.99,,,-99.99,,2013-02-03 11:22:00,
2013-02-03 05:32:00,36.0,27.0,30.12,West,280,10.0,14.0,68,-99.99,,,-99.99,,2013-02-03 11:32:00,
2013-02-03 05:42:00,37.0,27.0,30.11,WNW,285,10.0,13.0,68,-99.99,,,-99.99,,2013-02-03 11:42:00,
2013-02-03 05:52:00,37.0,27.0,30.11,WNW,285,10.0,13.0,68,-99.99,,,-99.99,,2013-02-03 11:52:00,
2013-02-03 06:02:00,36.0,27.0,30.12,WNW,290,10.0,13.0,69,-99.99,,,-99.99,,2013-02-03 12:02:00,
2013-02-03 06:11:00,36.0,27.0,30.13,WNW,290,9.0,15.0,69,-99.99,,,-99.99,,2013-02-03 12:11:00,
2013-02-03 06:22:00,36.0,27.0,30.13,WNW,290,9.0,15.0,69,-99.99,,,-99.99,,2013-02-03 12:22:00,
2013-02-03 06:32:00,36.0,27.0,30.13,WNW,285,10.0,19.0,69,-99.99,,,-99.99,,2013-02-03 12:32:00,
2013-02-03 06:42:00,36.0,27.0,30.13,WNW,300,12.0,20.0,68,-99.99,,,-99.99,,2013-02-03 12:42:00,
2013-02-03 06:53:00,36.0,27.0,30.13,WNW,300,12.0,20.0,68,-99.99,,,-99.99,,2013-02-03 12:53:00,
2013-02-03 07:03:00,36.0,27.0,30.14,WNW,295,15.0,20.0,69,-99.99,,,-99.99,,2013-02-03 13:03:00,
2013-02-03 07:11:00,36.0,26.0,30.14,NW,305,13.0,18.0,69,-99.99,,,-99.99,,2013-02-03 13:11:00,
2013-02-03 07:21:00,36.0,26.0,30.14,NW,305,13.0,18.0,69,-99.99,,,-99.99,,2013-02-03 13:21:00,
2013-02-03 07:32:00,35.0,26.0,30.15,NW,305,12.0,18.0,70,-99.99,,,-99.99,,2013-02-03 13:32:00,
2013-02-03 07:42:00,35.0,26.0,30.15,WNW,295,10.0,15.0,71,-99.99,,,-99.99,,2013-02-03 13:42:00,
2013-02-03 07:52:00,35.0,26.0,30.15,WNW,295,10.0,15.0,71,-99.99,,,-99.99,,2013-02-03 13:52:00,
2013-02-03 08:02:00,34.0,26.0,30.15,WNW,295,10.0,20.0,72,-99.99,,,-99.99,,2013-02-03 14:02:00,
2013-02-03 08:11:00,34.0,26.0,30.16,WNW,285,9.0,19.0,73,-99.99,,,-99.99,,2013-02-03 14:11:00,
2013-02-03 08:20:00,35.0,26.0,30.18,NNW,330,13.0,20.0,68,-99.99,,,-99.99,,2013-02-03 14:20:00,
2013-02-03 08:21:00,34.0,26.0,30.16,WNW,285,9.0,19.0,73,-99.99,,,-99.99,,2013-02-03 14:21:00,
2013-02-03 08:32:00,34.0,26.0,30.17,WNW,300,13.0,20.0,71,-99.99,,,-99.99,,2013-02-03 14:32:00,
2013-02-03 08:42:00,35.0,26.0,30.18,NW,310,11.0,21.0,70,-99.99,,,-99.99,,2013-02-03 14:42:00,
2013-02-03 08:52:00,35.0,26.0,30.18,NW,310,11.0,21.0,70,-99.99,,,-99.99,,2013-02-03 14:52:00,
2013-02-03 09:03:00,35.0,26.0,30.18,NNW,330,13.0,20.0,68,-99.99,,,-99.99,,2013-02-03 15:03:00,
2013-02-03 09:11:00,35.0,26.0,30.18,NNW,330,13.0,20.0,68,-99.99,,,-99.99,,2013-02-03 15:11:00,
2013-02-03 10:11:00,38.0,22.0,30.21,NW,315,15.0,25.0,53,-99.99,,,-99.99,,2013-02-03 16:11:00,
2013-02-03 10:22:00,38.0,22.0,30.21,NW,315,15.0,25.0,53,-99.99,,,-99.99,,2013-02-03 16:22:00,
2013-02-03 10:33:00,38.0,20.0,30.21,NW,320,20.0,27.0,48,-99.99,,,-99.99,,2013-02-03 16:33:00,
2013-02-03 10:42:00,39.0,20.0,30.22,NW,305,17.0,25.0,46,-99.99,,,-99.99,,2013-02-03 16:42:00,
2013-02-03 10:52:00,39.0,20.0,30.22,NW,305,17.0,25.0,46,-99.99,,,-99.99,,2013-02-03 16:52:00,
2013-02-03 11:02:00,39.0,19.0,30.22,NW,315,17.0,28.0,44,-99.99,,,-99.99,,2013-02-03 17:02:00,
2013-02-03 11:11:00,39.0,18.0,30.21,NW,325,21.0,30.0,43,-99.99,,,-99.99,,2013-02-03 17:11:00,
2013-02-03 11:22:00,39.0,18.0,30.21,NW,325,21.0,30.0,43,-99.99,,,-99.99,,2013-02-03 17:22:00,
2013-02-03 11:32:00,40.0,18.0,30.21,NNW,335,19.0,27.0,41,-99.99,,,-99.99,,2013-02-03 17:32:00,
2013-02-03 11:42:00,41.0,20.0,30.21,NNW,335,10.0,21.0,42,-99.99,,,-99.99,,2013-02-03 17:42:00,
2013-02-03 11:52:00,41.0,20.0,30.21,NNW,335,10.0,21.0,42,-99.99,,,-99.99,,2013-02-03 17:52:00,
2013-02-03 12:03:00,41.0,18.0,30.21,NW,320,13.0,17.0,39,-99.99,,,-99.99,,2013-02-03 18:03:00,
2013-02-03 12:12:00,41.0,18.0,30.21,NW,325,14.0,21.0,40,-99.99,,,-99.99,,2013-02-03 18:12:00,
2013-02-03 12:23:00,41.0,18.0,30.21,NW,325,14.0,21.0,40,-99.99,,,-99.99,,2013-02-03 18:23:00,
2013-02-03 12:33:00,41.0,17.0,30.20,NW,320,15.0,22.0,37,-99.99,,,-99.99,,2013-02-03 18:33:00,
2013-02-03 12:42:00,42.0,18.0,30.20,WNW,300,12.0,19.0,37,-99.99,,,-99.99,,2013-02-03 18:42:00,
2013-02-03 12:51:00,42.0,18.0,30.20,WNW,300,12.0,19.0,37,-99.99,,,-99.99,,2013-02-03 18:51:00,
2013-02-03 13:02:00,43.0,19.0,30.18,NW,320,12.0,16.0,38,-99.99,,,-99.99,,2013-02-03 19:02:00,
2013-02-03 13:11:00,42.0,17.0,30.18,NW,310,12.0,16.0,35,-99.99,,,-99.99,,2013-02-03 19:11:00,
2013-02-03 13:22:00,42.0,17.0,30.18,NW,310,12.0,16.0,35,-99.99,,,-99.99,,2013-02-03 19:22:00,
2013-02-03 13:32:00,43.0,18.0,30.16,NNW,335,11.0,15.0,35,-99.99,,,-99.99,,2013-02-03 19:32:00,
2013-02-03 13:42:00,44.0,19.0,30.15,North,0,9.0,12.0,36,-99.99,,,-99.99,,2013-02-03 19:42:00,
2013-02-03 13:51:00,44.0,19.0,30.15,North,0,9.0,12.0,36,-99.99,,,-99.99,,2013-02-03 19:51:00,
2013-02-03 14:01:00,45.0,17.0,30.14,NNW,335,9.0,12.0,33,-99.99,,,-99.99,,2013-02-03 20:01:00,
2013-02-03 14:12:00,44.0,16.0,30.14,North,0,8.0,13.0,32,-99.99,,,-99.99,,2013-02-03 20:12:00,
2013-02-03 14:21:00,44.0,16.0,30.14,North,0,8.0,13.0,32,-99.99,,,-99.99,,2013-02-03 20:21:00,
2013-02-03 14:33:00,46.0,20.0,30.14,WNW,295,3.0,8.0,34,-99.99,,,-99.99,,2013-02-03 20:33:00,
2013-02-03 14:42:00,47.0,20.0,30.13,SSW,195,1.0,5.0,35,-99.99,,,-99.99,,2013-02-03 20:42:00,
2013-02-03 14:52:00,47.0,20.0,30.13,SSW,195,1.0,5.0,35,-99.99,,,-99.99,,2013-02-03 20:52:00,
2013-02-03 15:03:00,47.0,19.0,30.13,West,260,2.0,7.0,32,-99.99,,,-99.99,,2013-02-03 21:03:00,
2013-02-03 15:11:00,47.0,18.0,30.13,West,275,7.0,9.0,31,-99.99,,,-99.99,,2013-02-03 21:11:00,
2013-02-03 15:21:00,47.0,18.0,30.13,West,275,7.0,9.0,31,-99.99,,,-99.99,,2013-02-03 21:21:00,
2013-02-03 15:32:00,48.0,19.0,30.13,West,265,5.0,9.0,31,-99.99,,,-99.99,,2013-02-03 21:32:00,
2013-02-03 15:42:00,48.0,19.0,30.12,SW,230,7.0,11.0,31,-99.99,,,-99.99,,2013-02-03 21:42:00,
2013-02-03 15:51:00,48.0,19.0,30.12,SW,230,7.0,11.0,31,-99.99,,,-99.99,,2013-02-03 21:51:00,
2013-02-03 16:01:00,48.0,18.0,30.11,SW,220,7.0,11.0,30,-99.99,,,-99.99,,2013-02-03 22:01:00,
2013-02-03 16:11:00,48.0,19.0,30.11,SSW,205,4.0,8.0,31,-99.99,,,-99.99,,2013-02-03 22:11:00,
2013-02-03 16:21:00,48.0,19.0,30.11,SSW,205,4.0,8.0,31,-99.99,,,-99.99,,2013-02-03 22:21:00,
2013-02-03 16:32:00,48.0,19.0,30.10,WSW,240,6.0,10.0,32,-99.99,,,-99.99,,2013-02-03 22:32:00,
2013-02-03 16:42:00,47.0,20.0,30.09,WSW,245,5.0,13.0,33,-99.99,,,-99.99,,2013-02-03 22:42:00,
2013-02-03 16:51:00,47.0,20.0,30.09,WSW,245,5.0,13.0,33,-99.99,,,-99.99,,2013-02-03 22:51:00,
2013-02-03 17:01:00,48.0,19.0,30.07,SSW,195,3.0,6.0,32,-99.99,,,-99.99,,2013-02-03 23:01:00,
2013-02-03 17:12:00,47.0,20.0,30.06,SSE,150,4.0,5.0,33,-99.99,,,-99.99,,2013-02-03 23:12:00,
2013-02-03 17:22:00,47.0,20.0,30.06,SSE,150,4.0,5.0,33,-99.99,,,-99.99,,2013-02-03 23:22:00,
2013-02-03 17:32:00,47.0,20.0,30.06,South,170,7.0,9.0,33,-99.99,,,-99.99,,2013-02-03 23:32:00,
2013-02-03 17:42:00,47.0,20.0,30.06,SSE,165,7.0,10.0,34,-99.99,,,-99.99,,2013-02-03 23:42:00,
2013-02-03 17:52:00,47.0,20.0,30.06,SSE,165,7.0,10.0,34,-99.99,,,-99.99,,2013-02-03 23:52:00,
2013-02-03 18:00:00,44.0,19.0,30.04,SSE,150,5.0,9.0,37,-99.99,,,-99.99,,2013-02-04 00:00:00,
2013-02-03 18:02:00,46.0,20.0,30.06,South,185,5.0,7.0,35,-99.99,,,-99.99,,2013-02-04 00:02:00,
2013-02-03 18:11:00,46.0,20.0,30.06,South,180,6.0,9.0,35,-99.99,,,-99.99,,2013-02-04 00:11:00,
2013-02-03 18:22:00,46.0,20.0,30.06,South,180,6.0,9.0,35,-99.99,,,-99.99,,2013-02-04 00:22:00,
2013-02-03 18:32:00,45.0,20.0,30.04,SE,145,5.0,7.0,36,-99.99,,,-99.99,,2013-02-04 00:32:00,
2013-02-03 18:42:00,44.0,19.0,30.04,SSE,150,5.0,9.0,37,-99.99,,,-99.99,,2013-02-04 00:42:00,
2013-02-03 18:51:00,44.0,19.0,30.04,SSE,150,5.0,9.0,37,-99.99,,,-99.99,,2013-02-04 00:51:00,
2013-02-03 19:11:00,43.0,20.0,30.03,SSE,155,8.0,10.0,39,-99.99,,,-99.99,,2013-02-04 01:11:00,
2013-02-03 19:21:00,43.0,20.0,30.03,SSE,155,8.0,10.0,39,-99.99,,,-99.99,,2013-02-04 01:21:00,
2013-02-03 19:32:00,44.0,20.0,30.02,SSE,160,8.0,11.0,39,-99.99,,,-99.99,,2013-02-04 01:32:00,
2013-02-03 19:41:00,44.0,21.0,30.02,SSE,155,9.0,12.0,40,-99.99,,,-99.99,,2013-02-04 01:41:00,
2013-02-03 19:52:00,44.0,21.0,30.02,SSE,155,9.0,12.0,40,-99.99,,,-99.99,,2013-02-04 01:52:00,
2013-02-03 20:02:00,44.0,21.0,30.02,SSE,155,9.0,13.0,40,-99.99,,,-99.99,,2013-02-04 02:02:00,
2013-02-03 20:11:00,44.0,21.0,30.02,SSE,165,8.0,11.0,40,-99.99,,,-99.99,,2013-02-04 02:11:00,
2013-02-03 20:21:00,44.0,21.0,30.02,SSE,165,8.0,11.0,40,-99.99,,,-99.99,,2013-02-04 02:21:00,
2013-02-03 20:32:00,43.0,21.0,30.00,SSE,165,8.0,12.0,41,-99.99,,,-99.99,,2013-02-04 02:32:00,
2013-02-03 20:41:00,44.0,21.0,30.01,SSE,165,9.0,13.0,40,-99.99,,,-99.99,,2013-02-04 02:41:00,
2013-02-03 20:52:00,44.0,21.0,30.00,SSE,155,11.0,16.0,39,-99.99,,,-99.99,,2013-02-04 02:52:00,
2013-02-03 21:02:00,44.0,21.0,30.00,SSE,155,11.0,16.0,39,-99.99,,,-99.99,,2013-02-04 03:02:00,
2013-02-03 21:11:00,44.0,21.0,29.99,SSE,150,11.0,14.0,40,-99.99,,,-99.99,,2013-02-04 03:11:00,
2013-02-03 21:21:00,44.0,21.0,29.99,SSE,150,11.0,14.0,40,-99.99,,,-99.99,,2013-02-04 03:21:00,
2013-02-03 21:32:00,44.0,21.0,29.99,SSE,165,10.0,15.0,39,-99.99,,,-99.99,,2013-02-04 03:32:00,
2013-02-03 21:42:00,44.0,20.0,29.99,SSE,165,10.0,17.0,38,-99.99,,,-99.99,,2013-02-04 03:42:00,
2013-02-03 21:51:00,44.0,20.0,29.99,SSE,165,10.0,17.0,38,-99.99,,,-99.99,,2013-02-04 03:51:00,
2013-02-03 22:01:00,44.0,21.0,29.98,SSE,155,11.0,17.0,39,-99.99,,,-99.99,,2013-02-04 04:01:00,
2013-02-03 22:11:00,45.0,21.0,29.98,South,175,12.0,17.0,38,-99.99,,,-99.99,,2013-02-04 04:11:00,
2013-02-03 22:21:00,45.0,21.0,29.98,South,175,12.0,17.0,38,-99.99,,,-99.99,,2013-02-04 04:21:00,
2013-02-03 22:32:00,45.0,21.0,29.98,SSE,160,10.0,18.0,38,-99.99,,,-99.99,,2013-02-04 04:32:00,
2013-02-03 22:42:00,44.0,21.0,29.97,SSE,160,12.0,19.0,39,-99.99,,,-99.99,,2013-02-04 04:42:00,
2013-02-03 22:52:00,44.0,21.0,29.97,SSE,160,12.0,19.0,39,-99.99,,,-99.99,,2013-02-04 04:52:00,
2013-02-03 23:03:00,44.0,21.0,29.96,SSE,165,11.0,16.0,39,-99.99,,,-99.99,,2013-02-04 05:03:00,
2013-02-03 23:11:00,44.0,21.0,29.96,SSE,160,12.0,17.0,39,-99.99,,,-99.99,,2013-02-04 05:11:00,
2013-02-03 23:22:00,44.0,21.0,29.96,SSE,160,12.0,17.0,39,-99.99,,,-99.99,,2013-02-04 05:22:00,
2013-02-03 23:33:00,44.0,21.0,29.95,South,170,11.0,16.0,40,-99.99,,,-99.99,,2013-02-04 05:33:00,
2013-02-03 23:42:00,44.0,21.0,29.95,SSE,165,11.0,16.0,40,-99.99,,,-99.99,,2013-02-04 05:42:00,
2013-02-03 23:52:00,44.0,21.0,29.95,SSE,165,11.0,16.0,40,-99.99,,,-99.99,,2013-02-04 05:52:00,